Back to catalog

NAVSTAR 38

USA 126

AliveNavigationMEO
NORAD 23953·PAYLOAD·🇺🇸 United States

Launched Jul 16, 1996 from Cape Canaveral Space Force Station

Loading…

Next Passes (next 24 hours)

TLE

FreshSource: Space-Track

Epoch: Sep 13, 2026, 06:47 UTC

1 23953U 96041A   26256.28327742 -.00000075  00000-0  00000-0 0  9991
2 23953  56.0977  43.5415 0062762 110.3928 254.3327  1.88695526216451

Track NAVSTAR 38 in real time with AllMySat

Download on the App Store